Regional Weather Roundup
Issued by NWS

Home | Current Version | Previous Version | Text Only | Print | Product List | Glossary On
Versions: 1 2 3 4 5 6 7 8 9 10 11 12 13 14 15 16 17 18 19 20 21 22 23 24 25 26 27 28 29 30 31 32 33 34 35 36 37 38 39 40 41 42 43 44 45 46 47 48 49 50
000
ASUS43 KMPX 051301
RWRMN
WEATHER ROUNDUP FOR MINNESOTA
NATIONAL WEATHER SERVICE TWIN CITIES/CHANHASSEN MN
800 AM CDT THU MAY 05 2016


NOTE: "FAIR" INDICATES FEW OR NO CLOUDS BELOW 12,000 FEET WITH NO
SIGNIFICANT WEATHER AND/OR OBSTRUCTIONS TO VISIBILITY. N/A MEANS
CURRENT SKY AND/OR WEATHER CONDITIONS ARE NOT AVAILABLE.

MNZ060>063-068>070-051400-
   Twin Cities Metro

CITY           SKY/WX    TMP DP  RH WIND       PRES   REMARKS
TWIN CITIES    PTSUNNY   51  30  44 CALM      30.07R
ST PAUL        CLOUDY    50  35  56 SE3       30.09R
CRYSTAL        SUNNY     51  31  46 S5        30.06R
BLAINE         MOSUNNY   54  34  47 S5        30.07
EDEN PRAIRIE   MOSUNNY   50  30  46 SW5       30.06R
SOUTH ST PAUL  CLOUDY    49  35  59 CALM      30.07S
LAKE ELMO      FAIR      45  41  87 CALM      30.08R
$$
MNZ001>005-007-008-013>017-022>024-027-028-051400-
   Northwest Minnesota

CITY           SKY/WX    TMP DP  RH WIND       PRES   REMARKS
BEMIDJI        MOSUNNY   54  28  37 S10       29.95F
HALLOCK        MOSUNNY   59  37  44 S13       29.80S
ROSEAU         SUNNY     57  36  44 S16       29.83S
WARROAD        SUNNY     55  36  47 S10G18    29.84F
THIEF RVR FALL SUNNY     57  34  41 S14       29.89S
CROOKSTON      SUNNY     57  36  44 S15       29.88F
FOSSTON        MOSUNNY   59  28  31 S16       29.92F
DETROIT LAKES  SUNNY     54  36  50 S9        29.97S
MOORHEAD       SUNNY     55  34  44 S15       29.93S
PARK RAPIDS    PTSUNNY   49  28  44 E7        30.01R
MAHNOMEN       FAIR      56  33  40 S10G17    29.93R
$$
MNZ006-009>011-018-025>026-051400-
   North Central Minnesota

CITY           SKY/WX    TMP DP  RH WIND       PRES   REMARKS
BAUDETTE       SUNNY     55  34  45 S13       29.87F
FLAG ISLAND    SUNNY     48  37  66 S15       29.81F
INTL FALLS     PTSUNNY   48  35  60 S7        29.90R
WASKISH        SUNNY     57  30  35 S10G18    29.90F
BIG FORK       CLOUDY    46  34  61 S10       29.95F
LONGVILLE      PTSUNNY   46  36  66 CALM      30.00S
GRAND RAPIDS   PTSUNNY   45  27  49 SE6       30.02R
CRANE LAKE     PTSUNNY   43  37  81 S5        29.94F
ORR            MOSUNNY   46  28  49 CALM      29.90F
COOK           CLOUDY    48  30  49 S7        29.96F
WALKER         PTSUNNY   53  26  35 S9        29.98S
$$
MNZ012-019>021-037-051400-
   Northeast Minnesota

CITY           SKY/WX    TMP DP  RH WIND       PRES   REMARKS
DULUTH         LGT RAIN  43  35  73 S6        30.01R
ELY            CLOUDY    45  34  65 S6        29.97S
HIBBING        CLOUDY    42  33  70 SW5       30.00R
EVELETH        CLOUDY    43  36  75 W5        30.01S
DULUTH HARBOR  CLOUDY    43  37  81 CALM      30.04S
TWO HARBORS    LGT RAIN  48  37  66 SW3       29.99S
SILVER BAY     CLOUDY    43  34  70 CALM      29.98F
GRAND MARAIS     N/A     40  33  76 W9        30.01R
G MARAIS ARPRT SUNNY     43  28  56 SW6       29.99S
$$
MNZ029>031-032-039>041-046>048-054>057-064-051400-
   West Central Minnesota

CITY           SKY/WX    TMP DP  RH WIND       PRES   REMARKS
FERGUS FALLS   SUNNY     55  36  47 S12       29.95F
WHEATON        SUNNY     57  39  51 SE10      29.99S
MORRIS         SUNNY     52  36  54 SE8       30.00S
ALEXANDRIA     MOSUNNY   53  36  52 S7        30.03R
ELBOW LAKE     FAIR      54  35  48 S12       29.99F
WADENA         MOSUNNY   54  32  43 SE5       30.00S
GLENWOOD       SUNNY     48  37  66 SE3       30.04R
APPLETON       SUNNY     52  39  62 CALM      30.01R
BENSON         SUNNY     48  36  61 CALM      30.02S
ORTONVILLE     SUNNY     54  37  54 SE5       29.99S
MADISON        SUNNY     52  36  54 S5        30.01R
WILLMAR        FAIR      50  39  66 SE8       30.05S
$$
MNZ033>034-036-042>043-049>051-058-059-051400-
   Central Minnesota

CITY           SKY/WX    TMP DP  RH WIND       PRES   REMARKS
ST CLOUD       MOSUNNY   49  31  49 S12       30.03F
SAUK CENTRE    FAIR      44  33  65 E3        30.04R
PAYNESVILLE    SUNNY     49  34  56 SE8       30.05R
AITKIN         MOSUNNY   52  27  37 S7        30.03R
PINE RIVER     MOSUNNY   45  37  76 CALM      30.04S
BRAINERD       MOSUNNY   49  30  48 S3        30.04R
STAPLES        MOSUNNY   43  34  70 S6        30.01F
LONG PRAIRIE   FAIR      41  34  75 CALM      30.04R
LITTLE FALLS   CLOUDY    45  32  61 CALM      30.03S
LITCHFIELD     SUNNY     52  36  54 S3        30.05F
BUFFALO        SUNNY     49  30  47 SE5       30.06S
MAPLE LAKE     SUNNY     51  32  48 S7        30.05F
HUTCHINSON     MOSUNNY   49  35  59 SE5       30.07S
$$
MNZ037-044-045-052-053-051400-
   East Central Minnesota

CITY           SKY/WX    TMP DP  RH WIND       PRES   REMARKS
PRINCETON        N/A     54  30  40 S6        30.04F
MORA           SUNNY     48  32  53 S6        30.06F
CAMBRIDGE      SUNNY     52  34  50 S7        30.03F
RUSH CITY      CLOUDY    45  33  63 S3        30.05S
MOOSE LAKE     CLOUDY    43  36  75 S6        30.00F
HINCKLEY       CLOUDY    45  37  76 S3        30.04F
CLOQUET        RAIN      43  36  75 W3        30.02R
MCGREGOR       MOSUNNY   48  30  49 SW6       30.04R
$$
MNZ071>073-080-081-089-090-097-098-051400-
   Southwest Minnesota

CITY           SKY/WX    TMP DP  RH WIND       PRES   REMARKS
MONTEVIDEO     SUNNY     52  39  62 S3        30.04R
GRANITE FALLS  SUNNY     50  38  63 CALM      30.05R
CANBY          SUNNY     60  38  44 SW6       30.02S
MARSHALL       SUNNY     54  38  54 CALM      30.03R
REDWOOD FALLS  SUNNY     46  36  68 CALM      30.05R
OLIVIA         SUNNY     50  34  53 SE5       30.04R
PIPESTONE      SUNNY     50  39  66 SW3       30.04S
WINDOM         SUNNY     48  41  76 CALM      30.05R
WORTHINGTON    SUNNY     52  38  58 SW7       30.06R
JACKSON        SUNNY     50  37  62 SE5       30.07R
TRACY          SUNNY     55  35  46 SW9       30.04R
SLAYTON        SUNNY     50  34  54 SW7       30.05R
$$
MNZ065>067-074>077-082>085-091>093-051400-
   South Central Minnesota

CITY           SKY/WX    TMP DP  RH WIND       PRES   REMARKS
MANKATO        MOSUNNY   48  30  49 S7        30.08R
NEW ULM        SUNNY     46  36  66 E1        30.06R
ST JAMES       SUNNY     43  36  75 CALM      30.07R
FAIRMONT       MOSUNNY   46  36  66 S6        30.06R
GLENCOE        SUNNY     51  33  50 S6        30.07R
FARIBAULT      CLOUDY    43  36  75 CALM      30.08R
OWATONNA       MOSUNNY   45  36  70 CALM      30.08R
WASECA         MOSUNNY   45  32  61 CALM      30.09R
ALBERT LEA     MOSUNNY   48  39  71 CALM      30.07R
$$
MNZ078>079-086>088-094>096-051400-
   Southeast Minnesota

CITY           SKY/WX    TMP DP  RH WIND       PRES   REMARKS
ROCHESTER      SUNNY     48  32  53 CALM      30.09R
RED WING       LGT RAIN  45  36  70 CALM      30.08R
STANTON        CLOUDY    45  34  64 CALM      30.07S
DODGE CENTER   SUNNY     45  34  65 CALM      30.07R
WINONA         MOSUNNY   45  36  70 CALM      30.07S
AUSTIN         CLOUDY    43  36  75 CALM      30.08R
PRESTON        SUNNY     44  33  65 CALM      30.07R
$$
ABBREVIATIONS USED IN REMARKS
   TC - TEMPERATURES IN CELSIUS
  WCI - WIND CHILL INDEX
   HX - HEAT INDEX
  VSB - VISIBILITY
$$




USA.gov is the U.S. government's official web portal to all federal, state and local government web resources and services.